International Virtual Aviation Organisation

Russian Federation and Kazakhstan MCD

 

Карточка аэропорта UWKD

Внимание!
Информация на этой странице в стадии наполнения.
Если вы не увидели какой-то информации, или заметили неточность - пожалуйста сообщите нам!
Спасибо!
Команда RU-STAFF
Название аэропортаКазань
Название аэропорта (англ.)Kazan
Превышение413 ft. (125.9 m.)
Координаты55°36.498', 49°16.668'
Высота перехода900m
Эшелон переходаQFE>=749mm:FL050; QFE<749=>722:FL060; QFE<722:FL070
Коды ответчика6732-6737
Зона ОрВДСамара РПИ (UWWW)
Данные METARUWKD 300030Z 12006MPS 6000 OVC006 M02/M03 Q1044 R11/820042 NOSIG RMK QFE773/1030
Проноз погоды (TAF)UWKD 292300Z 3000/3024 14005G10MPS 1200 BR OVC003 TXM03/3000Z TNM07/3021Z TEMPO 3000/3007 0400 FZFG BKN002 BECMG 3007/3008 6000 NSW BKN011
NOTAMshow/hide NOTAM
AWOS   TABLE

Информация о ВПП

ВПП Длина ВПП (м.) Покрытие Курс ВПП Частота ILS
113750Цементобетон112110.5
293750Цементобетон292111.7

Диспетчерские позиции

Позывной Наименование органа УВД Частота
UWKD_R_APPКазань-Круг119.400
UWKD_TWRКазань-Старт120.300
UWKD_GNDКазань-Руление121.7
UWKD_APPКазань - Подход128.625



Спутниковое изображение